Temp_Advection
nan nan nan nan nan nan nan nan nan nan nan nan nan nan nan nan nan nan nan nan nan nan nan nan nan nan nan nan nan nan nan nan nan nan nan nan nan nan nan nan nan nan nan
nan 0 -0 0 0 0 0 0 0 0 0 0 0 0 0 -0 -0 0 0 -0 -0 -0 -0 -0 -0 -0 -0 -0 -0 -0 -0 -0 -0 -0 -0 0 -0 -0 -0 -0 -0 -0 nan
nan -0 0 0 0 0 0 0 0 0 0 0 0 0 0 0 0 0 0 0 -0 -0 -0 -0 -0 -0 -0 -0 -0 -0 -0 -0 -0 -0 0 -0 -0 -0 -0 -0 -0 -0 nan
nan -0 0 0 0 0 0 0 0 0 0 0 0 0 0 0 0 0 -0 -0 -0 -0 -0 -0 -0 -0 -0 -0 -0 -0 -0 -0 -0 -0 -0 -0 -0 -0 -0 0 0 0 nan
nan 0 -0 0 0 0 0 0 0 0 0 0 0 0 0 0 -0 -0 -0 -0 -0 -0 -0 -0 -0 -0 -0 -0 -0 -0 -0 -0 -0 -0 -0 -0 -0 -0 -0 -0 -0 -0 nan
nan 0 -0 0 0 0 0 0 0 0 0 0 0 0 0 0 -0 -0 -0 -0 -0 -0 -0 0 -0 -0 0 -0 0 -0 -0 -0 -0 -0 -0 -0 -0 -0 -0 -0 -0 -0 nan
nan 0 0 0 0 0 0 0 0 0 0 0 0 0 -0 -0 -0 -0 -0 -0 0 0 0 0 -0 -0 -0 -0 -0 -0 -0 -0 -0 -0 -0 0 0 -0 -0 -0 -0 -0 nan
nan 0 0 0 0 0 0 0 0 0 0 0 0 0 0 -0 -0 -0 0 -0 -0 0 0 -0 -0 -0 -0 -0 -0 -0 -0 -0 -0 -0 -0 -0 0 0 0 -0 -0 -0 nan
nan 0 0 0 0 0 0 0 0 0 0 0 0 0 0 0 0 -0 -0 0 0 0 -0 -0 -0 -0 -0 -0 -0 -0 -0 -0 -0 -0 -0 -0 -0 0 0 0 -0 -0 nan
nan -0 -0 0 0 1 1 0 0 0 0 0 0 0 0 0 0 0 -0 -0 0 0 0 -0 -0 -0 -0 -0 -0 -0 -1 -0 -0 -0 -0 -0 -0 -0 -0 0 0 -0 nan
nan -0 0 0 -0 -0 1 0 0 0 0 0 0 0 0 -0 0 0 0 -0 -0 -0 -0 -0 -0 -0 -0 -0 -0 -1 -1 -0 -0 -0 -0 -0 -0 -0 -0 -0 -0 -0 nan
nan 0 -0 -0 -0 -0 -0 0 0 0 0 0 0 0 0 -0 -0 0 0 0 0 -0 -0 -0 -0 -0 -0 -0 -0 -0 -0 -0 -0 -0 -0 -0 -0 -0 -0 -0 -0 -0 nan
nan 0 -0 -0 -0 -0 -0 0 0 0 0 0 0 -0 -0 0 0 0 0 0 -0 0 -0 -0 -0 -0 -0 0 0 -0 -0 -0 -0 -0 -0 -0 -0 -0 -0 -0 -0 -0 nan
nan -0 -0 -0 -0 -0 -0 -0 -0 -0 -0 -0 -0 -0 0 0 -0 0 0 -0 0 -0 -0 -0 -0 -0 -0 -1 -1 -0 -0 -1 -1 -0 -0 -1 -0 -0 0 -0 -0 -0 nan
nan 0 0 0 0 -0 -0 -0 -0 -0 -0 -0 -0 0 0 -0 -0 0 0 0 0 0 0 -0 -0 -0 -0 -0 -1 -1 -0 -0 -1 -1 -0 -1 -1 -0 -0 -0 -0 -0 nan
nan 0 0 0 0 0 0 0 -0 -0 0 0 0 0 0 -0 0 0 0 0 0 0 0 0 0 -0 -0 -0 -0 -0 -0 -0 -0 -1 -0 -0 -1 -1 -0 -0 -0 -0 nan
nan 0 -0 -0 0 0 0 0 0 -0 0 0 0 0 0 0 0 0 0 0 -0 0 0 -0 -0 -0 -0 -0 -0 -0 -0 0 0 -0 -0 -0 -0 -1 -1 -1 -0 -0 nan
nan 0 -0 0 0 0 0 0 -0 -1 -0 0 -0 0 0 0 0 0 0 0 0 0 -0 -0 -0 -0 -1 -0 -1 -1 -0 -0 0 0 -0 -0 -0 -0 -0 -1 -1 -0 nan
nan -0 0 0 0 0 -0 -0 0 -0 0 0 -0 0 0 0 0 0 0 0 0 -0 -0 -0 -0 -0 -1 -0 -1 -1 -0 -0 -0 0 0 0 -0 -0 -0 -1 -2 -1 nan
nan 0 1 0 1 -0 0 0 0 0 0 -0 0 0 0 0 0 0 0 0 0 0 -0 -0 -0 -0 -0 -0 -1 -0 -0 -0 -0 0 0 0 0 0 -0 -0 -1 -1 nan
nan 1 1 0 0 0 0 0 0 -0 0 0 -0 -0 0 0 0 0 0 -0 -0 -0 -0 -0 -0 -0 -0 -0 -1 -1 -0 0 0 0 0 0 0 0 -0 -0 -0 -0 nan
nan -0 -0 0 0 0 0 -0 0 0 0 -0 -0 0 0 0 0 -0 0 -0 -0 0 -0 -0 -0 -1 -1 0 -0 -2 -1 -0 0 1 0 -0 0 0 -0 -0 -0 -0 nan
nan -0 -0 0 0 0 0 0 0 0 -0 0 0 0 0 0 0 -0 -0 0 -0 -0 0 0 -0 -0 -1 -0 0 -0 -2 -1 -0 -0 -0 0 0 0 -0 -0 -0 -0 nan
nan -0 -0 0 0 0 -0 0 0 0 0 0 0 0 0 -0 0 -0 -0 -0 0 0 0 -0 0 -0 -0 -0 -0 0 0 -0 -1 -1 -0 -0 0 0 0 -0 -0 -0 nan
nan 0 -0 -0 0 -0 0 0 0 0 0 0 0 0 0 0 -0 0 -0 -0 0 0 0 0 -0 -0 -0 -0 -0 -0 -0 -0 -0 -0 -0 -1 -0 0 0 0 -0 -0 nan
nan nan nan nan nan nan nan nan nan nan nan nan nan nan nan nan nan nan nan nan nan nan nan nan nan nan nan nan nan nan nan nan nan nan nan nan nan nan nan nan nan nan nan
Wind_Speed
22 25 24 23 21 19 16 15 14 13 12 11 10 9 8 8 8 8 8 7 7 7 7 7 8 8 8 8 8 8 8 7 7 7 6 5 4 5 6 7 7 5 6
24 26 23 22 20 17 15 14 13 13 11 11 10 9 9 10 11 11 11 11 11 10 10 9 9 9 9 10 10 9 9 9 8 8 8 11 8 4 6 6 5 6 6
25 23 22 20 18 16 15 14 13 12 11 11 11 11 12 13 13 13 12 11 11 10 10 10 9 10 11 11 12 12 11 10 8 8 9 6 6 4 5 6 7 8 8
26 24 21 20 18 16 14 13 12 12 11 11 12 13 14 14 13 12 11 10 9 9 9 10 11 12 12 11 11 11 12 12 10 9 8 6 6 7 8 7 9 9 7
22 22 21 20 18 16 15 14 13 12 12 13 13 14 14 13 12 11 10 10 11 12 13 13 13 14 15 15 14 14 14 13 15 13 8 8 8 9 9 9 8 9 4
21 21 21 19 17 16 16 14 13 13 13 14 14 14 14 13 12 11 12 12 13 14 15 15 16 16 17 19 19 17 15 14 16 11 9 10 9 11 11 10 9 10 8
21 19 21 18 16 15 15 14 13 13 13 13 14 14 13 13 13 13 14 14 15 16 15 15 17 18 19 20 21 20 20 18 14 11 9 9 10 10 11 11 11 11 11
21 20 20 17 14 14 13 13 13 13 13 13 14 14 14 13 13 13 13 14 14 15 15 14 14 15 16 17 18 19 20 18 15 14 11 9 10 10 9 9 9 10 10
19 19 18 17 16 13 12 12 13 13 13 13 13 14 13 12 11 11 11 11 10 11 10 10 11 11 12 14 16 18 20 19 15 13 11 9 12 11 10 8 7 8 10
20 18 16 15 14 12 13 13 14 14 13 13 13 12 11 10 9 9 8 7 6 6 6 6 7 9 11 13 15 18 20 20 15 13 12 14 14 11 11 10 10 9 11
19 18 17 14 13 13 12 14 14 14 13 12 11 10 8 5 5 4 5 5 3 1 3 4 6 8 9 13 15 20 18 16 15 13 12 17 17 16 14 12 12 12 10
20 18 13 12 13 14 12 14 13 13 9 8 7 8 4 5 4 4 4 3 1 1 3 6 7 8 10 11 14 18 16 22 15 14 14 18 17 17 19 18 16 16 15
16 14 13 14 15 14 11 10 9 7 7 6 6 5 5 4 4 3 3 2 2 3 2 6 8 11 17 19 21 22 21 18 15 16 16 21 19 18 19 21 22 20 19
15 13 15 14 14 14 11 10 10 7 6 4 5 5 5 3 6 6 3 4 3 4 7 8 9 15 19 22 23 23 22 19 17 17 16 25 23 21 21 21 23 24 24
14 13 14 14 14 13 13 12 11 8 4 6 6 5 5 6 8 8 8 6 5 7 8 9 11 15 18 17 19 23 21 19 19 17 16 24 25 24 23 23 23 24 26
13 13 15 15 15 14 12 10 7 4 7 11 12 7 7 11 10 9 7 7 7 8 11 11 17 18 15 17 19 20 21 19 17 19 17 16 23 22 23 24 24 24 24
13 14 16 16 14 13 11 8 4 7 14 16 12 12 13 12 9 7 7 7 10 12 14 17 17 13 17 19 21 20 21 20 18 16 15 12 13 18 21 21 23 24 25
14 15 19 17 14 13 13 6 9 14 17 15 9 11 9 7 7 9 11 11 12 14 14 12 13 17 20 20 20 22 21 19 18 15 12 13 12 12 15 22 24 25 27
15 16 19 20 20 15 11 3 15 20 19 6 3 3 4 7 11 9 11 11 12 11 12 17 18 18 20 20 21 21 19 19 18 16 12 11 12 15 16 17 24 24 28
16 16 18 20 21 19 16 13 12 9 4 5 7 5 9 9 8 10 11 13 14 11 14 23 23 17 18 19 21 21 19 20 17 14 12 13 14 15 16 19 20 20 26
16 17 17 15 18 14 11 6 7 5 8 6 6 6 8 9 9 9 8 12 17 19 23 21 17 17 19 18 21 22 22 18 12 14 16 16 16 19 18 20 20 22 22
15 16 15 14 12 7 10 10 9 9 8 8 7 8 9 8 8 10 14 15 19 11 11 16 16 17 16 18 19 22 20 19 20 12 20 18 21 19 21 21 23 23 22
16 16 15 13 14 15 13 12 11 9 6 6 8 8 10 11 11 13 15 13 12 15 14 13 15 15 19 18 15 16 19 18 21 22 19 19 21 24 23 23 23 22 21
18 17 16 16 16 14 13 8 7 6 5 6 6 7 6 10 13 12 16 20 22 18 15 15 15 17 18 18 16 15 16 17 21 25 20 21 23 24 26 24 23 23 22
21 20 17 16 13 14 12 9 6 5 5 4 3 4 6 8 13 15 18 22 22 16 16 14 14 20 18 17 16 16 16 16 17 20 25 26 25 24 22 23 25 23 23
15 16 19 17 15 14 12 9 6 5 2 1 3 6 9 12 14 15 16 20 19 18 16 15 18 20 17 16 14 13 15 17 19 19 21 23 26 26 23 24 24 23 25
Wind_Direction
152 155 149 153 152 149 149 149 143 139 134 127 126 124 117 105 102 103 99 99 93 88 81 73 65 56 49 39 26 17 11 4 3 7 25 31 356 3 10 21 48 27 31
150 151 154 157 156 152 155 152 147 141 135 135 131 120 112 111 112 111 110 106 102 94 84 72 61 51 43 37 32 24 19 20 21 27 46 27 351 358 11 24 52 359 11
148 153 154 160 157 155 157 150 142 139 141 135 127 123 122 121 117 111 106 96 87 78 69 60 51 45 39 32 25 22 20 23 28 35 54 62 356 360 7 9 2 348 342
154 155 160 161 161 162 155 147 145 146 140 135 134 131 126 122 115 107 98 91 81 75 70 62 51 43 39 36 31 26 26 26 26 45 40 44 16 351 348 349 343 341 358
152 150 163 162 167 160 154 153 152 146 146 141 134 130 126 118 109 98 89 83 81 79 76 72 64 56 48 45 40 32 32 37 40 35 32 26 24 7 359 346 345 351 318
150 151 159 164 166 162 156 151 150 148 144 138 136 131 125 116 109 103 99 93 91 90 87 79 69 60 53 51 48 43 36 35 52 32 27 17 14 357 357 358 347 354 356
152 152 159 163 165 157 152 152 151 146 144 141 135 129 121 115 111 108 105 100 97 91 85 75 66 58 49 48 46 43 38 32 37 31 23 20 4 356 350 346 343 346 349
151 153 160 161 161 156 153 152 149 148 147 141 135 127 123 122 122 115 111 105 100 93 83 75 67 57 51 44 38 36 33 32 28 25 22 12 349 340 340 341 334 335 339
151 154 158 158 161 158 153 156 152 149 143 141 133 133 132 128 126 121 120 113 103 95 88 78 71 60 48 39 30 24 18 11 16 11 19 3 353 341 331 325 324 321 318
163 159 149 153 155 157 163 162 155 149 144 142 140 139 135 130 126 125 125 126 114 100 84 71 52 41 37 33 22 16 10 9 353 354 351 335 336 330 324 320 314 308 304
166 167 157 156 160 162 158 160 154 152 149 146 147 147 142 140 130 133 144 146 135 85 57 44 20 16 16 6 0 355 10 351 353 339 332 324 321 315 310 305 305 305 304
168 167 160 160 163 163 154 157 157 157 151 156 161 165 158 179 173 185 193 196 178 349 350 348 346 347 0 360 351 352 345 347 346 343 319 324 312 304 306 305 298 293 292
162 164 164 165 164 155 162 153 146 154 163 168 179 188 210 218 239 219 230 237 279 309 330 333 335 332 332 335 337 339 339 343 333 333 312 321 313 304 298 297 297 296 294
161 162 164 166 161 161 149 143 154 149 164 171 211 220 232 229 241 244 220 254 275 291 316 316 325 323 326 328 330 332 332 330 323 325 314 310 309 303 295 290 290 291 293
155 157 162 160 157 154 147 154 164 175 201 227 236 231 250 234 243 243 248 254 288 309 314 323 324 322 323 329 329 326 326 321 317 316 312 304 303 300 297 293 289 286 287
156 158 163 164 162 164 165 167 174 223 266 271 267 255 272 263 257 260 264 279 289 294 299 309 313 319 329 327 325 321 321 317 311 309 305 299 303 300 295 291 289 289 287
162 170 176 177 175 176 171 132 134 341 305 289 272 268 266 259 258 259 264 265 279 285 291 303 319 327 323 320 319 319 316 312 307 305 303 297 300 310 299 292 289 288 286
174 174 193 188 191 186 167 144 338 328 267 303 278 259 248 240 251 253 263 278 284 297 314 326 326 321 322 319 317 317 312 308 301 300 299 297 293 295 305 300 290 289 287
179 188 202 199 203 192 149 318 258 263 281 276 285 178 230 272 270 258 277 283 303 320 320 323 324 326 323 316 316 314 305 303 296 288 285 291 299 299 298 299 295 294 293
182 195 210 212 209 209 252 294 252 247 246 192 177 226 273 266 252 283 285 298 311 319 326 322 327 326 325 315 316 312 305 302 291 278 283 300 296 305 308 308 309 304 303
190 180 183 223 218 234 253 198 187 193 165 194 248 244 239 246 268 283 305 311 318 320 320 325 327 324 321 315 319 308 306 299 290 284 293 304 299 305 306 307 310 304 305
177 176 179 200 213 176 158 161 165 176 197 217 239 247 252 263 277 293 303 313 314 319 317 323 327 326 321 318 315 316 311 295 297 279 298 300 302 303 309 308 309 309 308
169 172 169 178 169 173 164 164 180 207 232 248 257 263 267 275 285 306 318 316 315 317 313 317 320 330 320 319 308 309 313 304 301 297 294 300 301 305 305 308 309 313 308
161 164 164 164 165 167 158 183 185 205 232 229 244 257 268 292 310 316 311 314 317 316 309 310 309 318 319 311 304 298 292 295 300 304 298 298 300 301 304 305 304 307 311
156 161 163 163 162 174 190 195 205 200 222 236 239 279 287 298 307 308 311 314 311 303 297 294 301 310 309 303 301 297 294 297 298 300 304 304 299 299 298 300 302 306 300
152 157 165 165 177 189 197 203 196 215 190 236 286 302 302 300 302 304 301 298 293 294 291 289 301 306 300 294 291 289 290 294 300 304 305 305 302 300 298 299 301 296 298
Height
1552 1554 1558 1562 1564 1567 1569 1570 1571 1572 1573 1573 1573 1572 1572 1572 1573 1573 1572 1572 1571 1571 1571 1570 1569 1568 1568 1566 1565 1565 1564 1562 1560 1560 1559 1559 1560 1558 1559 1558 1558 1558 1556
1551 1553 1558 1563 1566 1567 1569 1571 1572 1574 1574 1574 1574 1573 1573 1574 1575 1574 1573 1573 1573 1572 1571 1571 1570 1570 1569 1568 1567 1566 1564 1563 1561 1560 1559 1561 1561 1559 1560 1559 1557 1557 1557
1552 1555 1559 1564 1566 1569 1571 1572 1573 1575 1576 1575 1575 1575 1574 1575 1575 1575 1576 1575 1574 1574 1574 1572 1571 1570 1569 1569 1568 1567 1565 1563 1562 1561 1562 1564 1562 1561 1559 1559 1558 1557 1556
1551 1554 1561 1564 1567 1569 1571 1573 1574 1575 1577 1577 1576 1576 1576 1576 1576 1577 1576 1576 1575 1575 1573 1572 1573 1572 1571 1569 1568 1566 1565 1564 1564 1563 1564 1565 1565 1561 1560 1560 1558 1557 1556
1554 1557 1561 1564 1568 1572 1572 1573 1575 1577 1578 1578 1578 1578 1578 1578 1577 1578 1578 1578 1577 1577 1576 1574 1574 1572 1572 1571 1570 1569 1566 1565 1564 1567 1566 1564 1565 1561 1561 1560 1559 1556 1556
1554 1558 1562 1566 1569 1572 1572 1575 1577 1578 1579 1578 1578 1579 1578 1578 1578 1579 1579 1579 1578 1577 1576 1575 1574 1574 1574 1572 1571 1569 1567 1569 1567 1568 1567 1566 1565 1562 1561 1560 1560 1558 1557
1554 1559 1562 1566 1570 1573 1574 1577 1578 1579 1580 1580 1580 1581 1581 1581 1581 1582 1581 1582 1580 1579 1578 1578 1576 1576 1576 1572 1571 1570 1570 1570 1570 1568 1568 1567 1563 1562 1561 1560 1559 1558 1557
1554 1559 1563 1567 1573 1575 1576 1578 1579 1580 1581 1581 1582 1582 1582 1582 1583 1582 1583 1582 1582 1580 1580 1580 1579 1578 1576 1574 1574 1571 1570 1571 1571 1570 1568 1567 1563 1562 1562 1560 1559 1557 1556
1556 1560 1564 1568 1572 1576 1578 1579 1580 1581 1582 1584 1583 1583 1584 1584 1584 1584 1583 1584 1583 1581 1581 1581 1580 1579 1578 1575 1575 1574 1572 1572 1572 1570 1569 1567 1563 1562 1561 1560 1558 1557 1556
1557 1561 1565 1570 1572 1576 1578 1579 1580 1581 1583 1585 1585 1586 1586 1588 1586 1586 1586 1586 1585 1583 1582 1581 1581 1580 1578 1574 1575 1574 1573 1572 1572 1571 1569 1564 1563 1562 1560 1559 1557 1556 1555
1560 1563 1567 1572 1574 1576 1578 1580 1581 1583 1584 1587 1588 1588 1589 1590 1589 1588 1587 1585 1585 1584 1583 1581 1581 1579 1577 1575 1574 1573 1572 1573 1571 1570 1568 1563 1561 1559 1558 1557 1555 1554 1553
1562 1565 1568 1572 1573 1576 1578 1581 1582 1585 1587 1588 1589 1589 1590 1589 1588 1588 1587 1586 1584 1585 1584 1581 1580 1578 1576 1575 1574 1572 1572 1568 1569 1567 1565 1560 1559 1557 1555 1554 1553 1551 1550
1564 1567 1569 1570 1572 1575 1580 1582 1583 1587 1588 1588 1590 1590 1589 1589 1589 1588 1587 1588 1584 1584 1583 1582 1580 1578 1575 1572 1571 1570 1568 1568 1567 1565 1562 1558 1555 1554 1552 1550 1548 1547 1546
1566 1568 1568 1571 1573 1575 1579 1581 1584 1588 1587 1588 1589 1589 1589 1589 1589 1588 1588 1586 1585 1584 1582 1581 1579 1577 1573 1571 1569 1567 1565 1564 1563 1561 1559 1553 1552 1550 1548 1546 1545 1543 1542
1566 1568 1570 1571 1574 1578 1578 1582 1583 1585 1586 1587 1589 1588 1589 1589 1587 1586 1585 1584 1584 1582 1581 1580 1579 1575 1572 1570 1567 1565 1563 1560 1558 1557 1554 1548 1547 1545 1544 1542 1540 1539 1537
1566 1569 1569 1574 1576 1579 1579 1582 1583 1584 1585 1586 1587 1587 1588 1588 1587 1586 1584 1583 1582 1580 1579 1577 1576 1573 1570 1568 1566 1563 1559 1557 1554 1551 1550 1547 1541 1540 1538 1537 1535 1533 1532
1566 1568 1570 1574 1576 1579 1581 1582 1582 1583 1582 1581 1581 1584 1584 1585 1585 1585 1583 1581 1579 1576 1576 1573 1572 1571 1569 1566 1563 1560 1558 1555 1550 1547 1545 1543 1541 1535 1533 1531 1530 1528 1527
1565 1565 1569 1573 1574 1576 1577 1578 1582 1576 1579 1578 1578 1580 1582 1582 1582 1581 1580 1579 1576 1575 1573 1571 1570 1567 1565 1562 1558 1555 1553 1550 1547 1543 1541 1538 1536 1534 1532 1526 1525 1524 1521
1563 1563 1566 1569 1570 1573 1578 1580 1575 1578 1580 1578 1578 1578 1580 1580 1580 1579 1577 1576 1574 1572 1571 1568 1567 1563 1561 1558 1554 1550 1548 1545 1543 1540 1536 1533 1531 1529 1526 1523 1519 1519 1515
1560 1560 1562 1566 1568 1571 1570 1574 1574 1576 1575 1577 1576 1576 1578 1578 1577 1576 1574 1573 1572 1570 1568 1565 1563 1561 1558 1554 1550 1547 1544 1541 1539 1536 1533 1530 1528 1525 1523 1520 1517 1515 1510
1556 1558 1561 1563 1566 1569 1571 1572 1573 1574 1573 1576 1577 1576 1576 1575 1574 1573 1572 1570 1569 1566 1564 1563 1560 1558 1555 1551 1546 1543 1540 1537 1535 1533 1532 1528 1525 1522 1519 1516 1513 1510 1506
1554 1557 1559 1562 1566 1568 1569 1570 1572 1572 1574 1575 1574 1574 1574 1573 1571 1570 1569 1567 1565 1565 1563 1560 1556 1553 1551 1548 1544 1540 1534 1534 1531 1528 1527 1524 1521 1518 1515 1513 1508 1505 1502
1554 1556 1559 1562 1564 1566 1568 1569 1571 1572 1573 1573 1573 1573 1572 1570 1569 1567 1565 1564 1563 1562 1560 1555 1552 1550 1546 1545 1542 1540 1534 1531 1528 1527 1523 1521 1518 1514 1511 1508 1505 1501 1498
1553 1556 1559 1561 1563 1565 1567 1570 1572 1573 1573 1572 1571 1570 1570 1568 1566 1565 1563 1561 1559 1557 1554 1552 1549 1546 1543 1540 1538 1536 1534 1531 1527 1521 1521 1518 1515 1511 1507 1503 1501 1498 1494
1551 1554 1558 1560 1562 1563 1565 1567 1569 1569 1569 1568 1568 1568 1567 1566 1563 1561 1559 1557 1554 1553 1550 1547 1545 1543 1540 1537 1535 1532 1530 1528 1525 1521 1515 1513 1510 1507 1503 1500 1497 1493 1489
1552 1554 1556 1558 1560 1562 1563 1565 1566 1566 1566 1567 1566 1566 1565 1564 1562 1559 1556 1552 1550 1548 1546 1543 1541 1538 1535 1534 1532 1530 1527 1525 1521 1518 1514 1510 1506 1502 1500 1497 1493 1489 1486